Вернуться в каталог

COSMOS 1285

АктивенВоенныеHEO
NORAD 12627·PAYLOAD·🇷🇺 Russia

Запущен Aug 4, 1981 с Plesetsk Cosmodrome

Loading…

Ближайшие Пролёты (ближайшие 24 часа)

TLE

СвежийSource: Space-Track

Эпоха: Sep 13, 2026, 20:31 UTC

1 12627U 81071A   26256.85550244  .00000346  00000-0  00000+0 0  9991
2 12627  68.7468  86.6984 5951460 349.9971 207.7569  1.98052331248251

Отслеживайте COSMOS 1285 в реальном времени с AllMySat

Download on the App Store